Location: Bucharest
(44.4268°N, 26.1025°E)
Time: 09:48:07
(UTC+03:00)

SPROUT - Pass Details

Date: 01 July 2022
Orbit: 588 x 598 km, 97.9° (Epoch: 15 August)

Event Time Altitude Azimuth Distance (km) Brightness Sun altitude
Exits shadow 01:41:01 43° 110° (ESE) 829 ? -22.3°
Maximum altitude 01:41:50 51° 72° (ENE) 749 ? -22.3°
Drops below altitude 10° 01:45:52 10° 357° (N) 1,926 ? -22.2°
Sets 01:48:05 0° 352° (N) 2,833 ? -22.1°
